Flag for Poland Weather past 2 weeks in Kraków, Poland

Now
43 °F

Partly sunny.


Feels Like: 37 °F
Forecast: 31 / 57 °F
Wind: 9 mph from North

Location: Krakow Airport


UV Index: 3 (Moderate)

Visibility: N/A


Pressure: 30.27 "Hg

Humidity: 76%

Dew point: 36 °F

Location of KrakówLocation

Historic Weather in Kraków

°F

Kraków temperature yesterday

Maximum temperature yesterday: 43 °F (at 10:30 AM)
Minimum temperature yesterday: 39 °F (at 12:00 AM)
Average temperature yesterday: 41 °F

Past Weeks' High & Low Weather Summary

 TemperatureHumidityPressure
High72 °F (Apr 8, 12:30 PM)100% (Apr 6, 5:30 AM)30.27 "Hg (Apr 6, 5:30 AM)
Low30 °F (Apr 13, 4:00 AM)33% (Apr 3, 4:00 PM)29.68 "Hg (Apr 3, 1:00 PM)
Average47 °F76%29.96 "Hg
* Reported Apr 1 5:00 PM — Apr 16 5:30 PM, Kraków, Weather by CustomWeather, © 2014

Note: Actual official high and low records may vary slightly from our data, if they occured in-between our weather recording intervals... More about our weather records

Advertising

Historic Weather Conditions — Data for Previous 24 hours

 ConditionsComfort  
Time TempWeatherWind HumidityBarometerVisibility
5:30 PM
Apr 16
43 °FPartly sunny.7 mph76%30.27 "HgN/A
5:00 PM43 °FBroken clouds.10 mph81%30.27 "HgN/A
4:30 PM41 °FBroken clouds.12 mph87%30.27 "HgN/A
4:00 PM41 °FBroken clouds.12 mph87%30.27 "HgN/A
3:30 PM41 °FPartly sunny.9 mph87%30.27 "HgN/A
3:00 PM41 °FSprinkles. Broken clouds.9 mph87%30.27 "HgN/A
2:30 PM41 °FPartly sunny.12 mph87%30.27 "HgN/A
2:00 PM41 °FPartly sunny.13 mph81%30.27 "HgN/A
1:30 PM41 °FPartly sunny.12 mph81%30.27 "HgN/A
1:00 PM43 °FPartly sunny.13 mph76%30.27 "HgN/A
12:30 PM43 °FPartly sunny.12 mph76%30.24 "HgN/A
12:00 PM43 °FPartly sunny.12 mph76%30.24 "HgN/A
11:30 AM43 °FPartly sunny.10 mph76%30.24 "HgN/A
11:00 AM41 °FPartly sunny.10 mph81%30.24 "HgN/A
10:30 AM41 °FPartly sunny.12 mph81%30.21 "HgN/A
10:00 AM41 °FPartly sunny.12 mph87%30.21 "HgN/A
9:30 AM39 °FPartly sunny.14 mph87%30.21 "HgN/A
9:00 AM39 °FPartly sunny.16 mph87%30.18 "HgN/A
8:30 AM39 °FBroken clouds.16 mph93%30.18 "HgN/A
8:00 AM39 °FSprinkles. Broken clouds.10 mph93%30.15 "HgN/A
7:30 AM41 °FSprinkles. Scattered clouds.12 mph93%30.15 "HgN/A
7:00 AM41 °FPartly sunny.9 mph87%30.12 "HgN/A
6:30 AM41 °FPassing clouds.10 mph87%30.12 "HgN/A
6:00 AM41 °FPassing clouds.10 mph87%30.12 "HgN/A
5:30 AM41 °FSprinkles. Partly cloudy.9 mph87%30.12 "HgN/A
5:00 AM41 °FPassing clouds.9 mph93%30.09 "HgN/A
4:30 AM41 °FPassing clouds.9 mph93%30.09 "HgN/A
4:00 AM41 °FPassing clouds.10 mph93%30.07 "HgN/A
3:30 AM41 °FPassing clouds.9 mph93%30.07 "HgN/A
3:00 AM41 °FPassing clouds.8 mph93%30.07 "HgN/A
1:00 AM41 °FPartly cloudy.3 mph93%30.04 "HgN/A
12:30 AM41 °FPartly cloudy.7 mph93%30.04 "HgN/A
12:00 AM39 °FPartly cloudy.No wind93%30.04 "HgN/A
11:00 PM
Apr 15
39 °FSprinkles. Passing clouds.8 mph93%30.04 "Hg5 mi
10:30 PM41 °FSprinkles. Passing clouds.6 mph87%30.04 "HgN/A
10:00 PM41 °FSprinkles. Passing clouds.5 mph87%30.01 "HgN/A
9:30 PM41 °FPassing clouds.5 mph87%30.01 "HgN/A
9:00 PM41 °FPassing clouds.5 mph87%30.01 "HgN/A
8:30 PM39 °FScattered clouds.9 mph93%29.98 "HgN/A
8:00 PM41 °FBroken clouds.9 mph87%29.98 "HgN/A
7:30 PM41 °FBroken clouds.8 mph93%29.98 "HgN/A
7:00 PM41 °FBroken clouds.5 mph93%29.95 "HgN/A
6:30 PM41 °FSprinkles. Partly sunny.7 mph93%29.95 "Hg4 mi
6:00 PM41 °FSprinkles. Partly sunny.12 mph93%29.95 "Hg4 mi
Weather by CustomWeather, © 2014

See weather overview